New York, NY

10:24 AM EDT on August 31, 2016 (GMT -0400)
Central Park

Weather History for KNYC - July, 2013

Change the Weather History Date:

Tuesday, July 23, 2013

  Actual Average Record
Temperature  
Mean Temperature 80 °F 77 °F  
Max Temperature 87 °F 84 °F 100 °F (2011)
Min Temperature 73 °F 69 °F 58 °F (1890)
Degree Days  
Heating Degree Days 0 0  
Month to date heating degree days 0 0  
Since 1 June heating degree days 9 19  
Since 1 July heating degree days 0 0  
Cooling Degree Days 15 12  
Month to date cooling degree days 391 264  
Year to date cooling degree days 715 545  
Since 1 June cooling degree days 636 476  
Growing Degree Days 28 (Base 50)    
Moisture  
Dew Point 72 °F    
Average Humidity 75    
Maximum Humidity 94    
Minimum Humidity 55    
Precipitation  
Precipitation 0.31 in 0.15 in 2.41 in (1953)
Month to date precipitation 2.58 3.30  
Year to date precipitation 31.90 27.50  
Snow  
Snow 0.00 in 0.00 in 0.00 in (2002)
Month to date snowfall 0.0 0.0  
Since 1 July snowfall 0.0 0.0  
Snow Depth 0.00 in    
Sea Level Pressure  
Sea Level Pressure 29.69 in    
Wind  
Wind Speed 4 mph (WSW)    
Max Wind Speed 14 mph    
Max Gust Speed 23 mph    
Visibility 6 miles    
Events Rain    
T = Trace of Precipitation, MM = Missing Value Source: NWS Daily Summary

Daily Weather History Graph

Daily Weather History Graph

Search for Another Location

Airport or City:

Trip Planner

Search our weather history database for the weather conditions in past years. The results will help you decide how hot, cold, wet, or windy it might be!

Date:

Astronomy

Jul. 23, 2013 Rise Set
Actual Time 5:44 AM EDT 8:19 PM EDT
Civil Twilight 5:12 AM EDT 8:51 PM EDT
Nautical Twilight 4:33 AM EDT 9:30 PM EDT
Astronomical Twilight 3:48 AM EDT 10:15 PM EDT
Moon 8:45 PM EDT (7/23) 6:50 AM EDT (7/23)
Length of Visible Light 15h 38m
Length of Day
14h 35m
Full, 99% of the Moon is Illuminated
Jul 23
Full
Jul 29
Last Quarter
Aug 6
New
Aug 14
First Quarter
Aug 20
Full

Hourly Weather History & Observations

Time (EDT) Temp. Heat Index Dew Point Humidity Pressure Visibility Wind Dir Wind Speed Gust Speed Precip Events Conditions
12:06 AM 75.9 °F - 73.9 °F 94% 29.83 in 3.0 mi Variable 3.5 mph - N/A   Mostly Cloudy
12:24 AM 75.9 °F - 73.9 °F 94% 29.82 in 3.0 mi East 4.6 mph - N/A   Overcast
12:33 AM 75.9 °F - 73.9 °F 94% 29.81 in 2.5 mi Variable 3.5 mph - N/A   Overcast
12:51 AM 75.9 °F - 73.9 °F 94% 29.79 in 3.0 mi SSE 3.5 mph - N/A   Overcast
1:51 AM 75.0 °F - 73.0 °F 94% 29.76 in 5.0 mi Variable 3.5 mph - N/A   Overcast
2:28 AM 75.0 °F - 73.0 °F 94% 29.77 in 2.5 mi Variable 4.6 mph - N/A   Overcast
2:51 AM 75.9 °F - 73.0 °F 91% 29.73 in 2.5 mi Variable 3.5 mph - 0.01 in Rain Light Rain
3:01 AM 75.9 °F - 73.9 °F 94% 29.75 in 3.0 mi Calm Calm - 0.01 in Rain Light Rain
3:08 AM 75.9 °F - 73.9 °F 94% 29.76 in 2.0 mi Calm Calm - 0.01 in Rain Light Rain
3:17 AM 75.9 °F - 73.9 °F 94% 29.75 in 1.8 mi Variable 3.5 mph - 0.03 in Rain Light Rain
3:36 AM 75.9 °F - 73.9 °F 94% 29.75 in 1.5 mi Calm Calm - 0.06 in Rain Light Rain
3:46 AM 75.2 °F - 73.4 °F 94% 29.75 in 1.5 mi Variable 3.5 mph - 0.08 in Rain Rain
3:51 AM 75.9 °F - 73.9 °F 94% 29.72 in 1.5 mi Variable 3.5 mph - 0.08 in Rain Rain
4:46 AM 75.2 °F - 73.4 °F 94% 29.72 in 1.2 mi Calm Calm - 0.20 in Rain Rain
4:51 AM 75.9 °F - 73.9 °F 94% 29.69 in 1.5 mi Variable 3.5 mph - 0.21 in Rain Light Rain
4:59 AM 75.0 °F - 73.9 °F 96% 29.71 in 2.0 mi Variable 4.6 mph - 0.01 in Rain Light Rain
5:05 AM 75.0 °F - 73.9 °F 96% 29.72 in 3.0 mi Variable 4.6 mph - 0.01 in   Overcast
5:14 AM 75.0 °F - 73.9 °F 96% 29.72 in 2.5 mi Variable 5.8 mph - 0.01 in Rain Light Rain
5:17 AM 75.0 °F - 73.0 °F 94% 29.72 in 3.0 mi SW 8.1 mph - 0.01 in Rain Light Rain
5:24 AM 75.0 °F - 73.0 °F 94% 29.72 in 6.0 mi North - - 0.01 in   Overcast
5:37 AM 73.9 °F - 73.0 °F 97% 29.71 in 5.0 mi Variable 4.6 mph - 0.01 in   Mostly Cloudy
5:46 AM 73.4 °F - 71.6 °F 94% 29.71 in 5.0 mi Variable 4.6 mph - 0.01 in   Mostly Cloudy
5:51 AM 73.9 °F - 72.0 °F 93% 29.68 in 5.0 mi Variable 4.6 mph - 0.01 in   Mostly Cloudy
6:51 AM 73.0 °F - 71.1 °F 93% 29.68 in 9.0 mi Calm Calm - N/A   Clear
7:44 AM 73.0 °F - 70.0 °F 90% 29.71 in 10.0 mi Variable 5.8 mph 17.3 mph N/A   Mostly Cloudy
7:51 AM 73.9 °F - 71.1 °F 91% 29.68 in 10.0 mi Variable 5.8 mph - N/A   Mostly Cloudy
8:46 AM 75.2 °F - 69.8 °F 83% 29.69 in 10.0 mi WSW 4.6 mph - N/A   Overcast
8:51 AM 75.0 °F - 71.1 °F 87% 29.66 in 10.0 mi Variable 3.5 mph - N/A   Overcast
9:51 AM 75.9 °F - 71.1 °F 85% 29.65 in 10.0 mi West 6.9 mph - N/A   Overcast
10:27 AM 78.1 °F - 70.0 °F 76% 29.68 in 10.0 mi West 8.1 mph - N/A   Partly Cloudy
10:51 AM 79.0 °F - 71.1 °F 77% 29.65 in 10.0 mi Variable 3.5 mph - N/A   Partly Cloudy
11:32 AM 82.0 °F 86.3 °F 71.1 °F 69% 29.67 in 10.0 mi Calm Calm - N/A   Mostly Cloudy
11:51 AM 82.0 °F 86.7 °F 72.0 °F 71% 29.64 in 10.0 mi Calm Calm - N/A   Overcast
12:19 PM 84.0 °F 89.0 °F 71.1 °F 65% 29.66 in 10.0 mi Variable 4.6 mph - N/A   Scattered Clouds
12:51 PM 84.9 °F 90.7 °F 72.0 °F 65% 29.64 in 10.0 mi North - - N/A   Mostly Cloudy
1:51 PM 84.9 °F 90.1 °F 71.1 °F 63% 29.61 in 10.0 mi WSW 8.1 mph - N/A   Mostly Cloudy
2:51 PM 84.9 °F 88.8 °F 69.1 °F 59% 29.60 in 10.0 mi North - - N/A   Mostly Cloudy
3:51 PM 84.9 °F 87.6 °F 66.9 °F 55% 29.59 in 10.0 mi WSW 10.4 mph 16.1 mph N/A   Scattered Clouds
4:51 PM 84.9 °F 88.8 °F 69.1 °F 59% 29.57 in 10.0 mi Variable 4.6 mph - N/A   Overcast
5:51 PM 84.0 °F 87.8 °F 69.1 °F 61% 29.57 in 10.0 mi WSW 5.8 mph - 0.00 in   Scattered Clouds
6:51 PM 84.0 °F 87.0 °F 68.0 °F 58% 29.57 in 10.0 mi Calm Calm - N/A   Clear
7:51 PM 82.0 °F 84.9 °F 68.0 °F 62% 29.59 in 10.0 mi Variable 3.5 mph - N/A   Mostly Cloudy
8:51 PM 80.1 °F 82.9 °F 69.1 °F 69% 29.60 in 10.0 mi Variable 3.5 mph - N/A   Scattered Clouds
9:51 PM 80.1 °F 82.9 °F 69.1 °F 69% 29.62 in 10.0 mi WNW 5.8 mph - N/A   Scattered Clouds
10:51 PM 81.0 °F 83.8 °F 68.0 °F 65% 29.63 in 10.0 mi West 5.8 mph - N/A   Overcast
11:51 PM 79.0 °F - 68.0 °F 69% 29.63 in 10.0 mi West 3.5 mph - N/A   Clear